M I D A S
Marine Information and Data Acquisition System
Tripno 1523 of the Zeeleeuw from 2008-07-22 06:44:23 to 2008-07-22 12:24:34
Back to CruiseResearch ActivitiesStationsMapUnderway DataData graphs

EquipmentUnitsComment
TimeDGPSUTC
LatitudeDGPSDM.mWGS84
LongitudeDGPSDM.mWGS84
HeadingGyrodeg 
SOGDGPSknotsSpeed over ground
COGDGPSdegCourse over ground
DepthEcho soundermeters200 kHz
Missing or incorrect values are displayed as -999
Navigation data collected by the RV Zeeleeuw from 2008-07-22 06:46:12 to 2008-07-22 12:28:47
                                                                                    Next 1000 lines
Time Latitude Longitude Heading SOG COG Depth
2008-07-22 06:46:22 51°13.623 2°56.044 110.9 0.7 288 7.5
2008-07-22 06:46:27 51°13.624 2°56.042 110.4 0.9 291 7.6
2008-07-22 06:46:32 51°13.624 2°56.04 110.2 1.2 291 7.5
2008-07-22 06:46:37 51°13.625 2°56.036 110.1 1.6 292 7.6
2008-07-22 06:46:42 51°13.626 2°56.033 110.1 1.8 291 7.6
2008-07-22 06:46:47 51°13.627 2°56.028 110.4 2.1 293 -999
2008-07-22 06:46:52 51°13.629 2°56.023 111 2.4 293 -999
2008-07-22 06:46:57 51°13.63 2°56.018 111.7 2.6 293 -999
2008-07-22 06:47:02 51°13.632 2°56.012 111.7 2.8 293 -999
2008-07-22 06:47:07 51°13.633 2°56.006 111.2 3 292 -999
2008-07-22 06:47:12 51°13.635 2°55.999 110.8 3.2 291 -999
2008-07-22 06:47:17 51°13.636 2°55.992 110.2 3.3 291 -999
2008-07-22 06:47:22 51°13.638 2°55.985 109.7 3.5 289 -999
2008-07-22 06:47:27 51°13.64 2°55.978 109.1 3.6 289 -999
2008-07-22 06:47:32 51°13.641 2°55.97 108.8 3.7 288 -999
2008-07-22 06:47:37 51°13.643 2°55.962 108.8 3.8 288 -999
2008-07-22 06:47:42 51°13.644 2°55.954 109.2 3.9 287 -999
2008-07-22 06:47:47 51°13.646 2°55.946 109.8 4 289 -999
2008-07-22 06:47:52 51°13.648 2°55.937 110.6 4.1 289 -999
2008-07-22 06:47:57 51°13.65 2°55.928 111.6 4.1 290 -999
2008-07-22 06:48:02 51°13.652 2°55.92 112.6 4.2 291 -999
2008-07-22 06:48:07 51°13.654 2°55.911 113.7 4.2 292 -999
2008-07-22 06:48:12 51°13.657 2°55.902 115.3 4.3 293 -999
2008-07-22 06:48:17 51°13.659 2°55.894 116.7 4.4 295 -999
2008-07-22 06:48:22 51°13.662 2°55.885 118.1 4.4 296 -999
2008-07-22 06:48:27 51°13.665 2°55.876 119.2 4.5 297 -999
2008-07-22 06:48:32 51°13.668 2°55.867 120.7 4.6 298 -999
2008-07-22 06:48:37 51°13.671 2°55.858 121.5 4.6 300 -999
2008-07-22 06:48:42 51°13.674 2°55.85 122.4 4.4 301 -999
2008-07-22 06:48:47 51°13.677 2°55.842 123.3 4.2 301 -999
2008-07-22 06:48:52 51°13.68 2°55.834 124 4.2 302 -999
2008-07-22 06:48:57 51°13.683 2°55.826 124.6 4.3 303 -999
2008-07-22 06:49:02 51°13.687 2°55.818 125.1 4.3 304 -999
2008-07-22 06:49:07 51°13.69 2°55.811 125.4 4.3 304 -999
2008-07-22 06:49:12 51°13.694 2°55.802 125.6 4.4 305 -999
2008-07-22 06:49:17 51°13.697 2°55.795 126.1 4.2 305 -999
2008-07-22 06:49:22 51°13.7 2°55.788 126.5 3.9 306 -999
2008-07-22 06:49:27 51°13.703 2°55.781 127.2 3.7 306 -999
2008-07-22 06:49:32 51°13.706 2°55.775 127.9 3.5 307 -999
2008-07-22 06:49:37 51°13.708 2°55.77 128.4 3.1 307 10.3
2008-07-22 06:49:41 51°13.71 2°55.766 128.4 2.7 307 10.3
2008-07-22 06:49:46 51°13.712 2°55.763 128.4 1.9 307 10.3
2008-07-22 06:49:52 51°13.713 2°55.76 128.1 1.2 312 10.3
2008-07-22 06:49:57 51°13.713 2°55.759 126.2 0.6 311 10.3
2008-07-22 06:50:01 51°13.714 2°55.759 122.6 0.3 5 10.2
2008-07-22 06:50:06 51°13.714 2°55.76 117.9 0.4 74 10.2
2008-07-22 06:50:11 51°13.714 2°55.762 113 0.9 87 10.3
2008-07-22 06:50:17 51°13.714 2°55.765 107.5 1.4 89 10.2
2008-07-22 06:50:21 51°13.714 2°55.768 101.4 1.7 83 10.1
2008-07-22 06:50:26 51°13.715 2°55.773 95 2 81 10
2008-07-22 06:50:32 51°13.716 2°55.778 88.5 1.9 71 10
2008-07-22 06:50:37 51°13.716 2°55.781 82.1 1.7 71 10
2008-07-22 06:50:41 51°13.717 2°55.784 77.8 1.4 66 10.1
2008-07-22 06:50:46 51°13.718 2°55.786 74.9 1.1 66 10.2
2008-07-22 06:50:51 51°13.718 2°55.787 72.2 0.7 56 10.1
2008-07-22 06:50:57 51°13.719 2°55.788 68.2 0.3 55 10.1
2008-07-22 06:51:01 51°13.719 2°55.788 65.2 0.1 305 10.4
2008-07-22 06:51:06 51°13.718 2°55.787 62.9 0.4 240 10.2
2008-07-22 06:51:11 51°13.718 2°55.785 61 0.9 244 10.1
2008-07-22 06:51:17 51°13.717 2°55.782 60 1.3 240 10.1
2008-07-22 06:51:21 51°13.716 2°55.78 59 1.7 240 9.9
2008-07-22 06:51:27 51°13.714 2°55.775 58.5 2 239 -999
2008-07-22 06:51:32 51°13.713 2°55.771 57.9 2.1 240 -999
2008-07-22 06:51:37 51°13.711 2°55.767 57.4 2.2 238 -999
2008-07-22 06:51:42 51°13.709 2°55.763 57 2.3 239 -999
2008-07-22 06:51:47 51°13.708 2°55.758 56.5 2.4 238 -999
2008-07-22 06:51:52 51°13.706 2°55.754 55.9 2.5 238 -999
2008-07-22 06:51:56 51°13.704 2°55.751 54.9 2.3 237 -999
2008-07-22 06:52:01 51°13.703 2°55.746 54.3 2.2 237 -999
2008-07-22 06:52:07 51°13.701 2°55.742 53.6 2 236 -999
2008-07-22 06:52:12 51°13.7 2°55.739 52.9 1.6 236 -999
2008-07-22 06:52:17 51°13.699 2°55.737 51.4 1.2 235 -999
2008-07-22 06:52:21 51°13.698 2°55.736 49.3 0.7 241 -999
2008-07-22 06:52:26 51°13.698 2°55.735 46 0.3 258 -999
2008-07-22 06:52:32 51°13.698 2°55.735 42.3 0.3 337 10.8
2008-07-22 06:52:37 51°13.699 2°55.735 39 0.5 10 10.7
2008-07-22 06:52:41 51°13.7 2°55.735 36.1 0.9 12 10.8
2008-07-22 06:52:46 51°13.702 2°55.736 31.9 1.2 12 10.9
2008-07-22 06:52:52 51°13.704 2°55.736 25 1.6 8 10.9
2008-07-22 06:52:57 51°13.707 2°55.737 18.7 2.1 5 10.8
2008-07-22 06:53:01 51°13.71 2°55.737 12.2 2.4 359 10.6
2008-07-22 06:53:06 51°13.714 2°55.736 5 2.8 353 10.5
2008-07-22 06:53:11 51°13.718 2°55.734 359.2 3.2 346 10.5
2008-07-22 06:53:17 51°13.723 2°55.731 350.5 3.6 340 -999
2008-07-22 06:53:21 51°13.727 2°55.728 343.9 4 335 10.2
2008-07-22 06:53:26 51°13.733 2°55.724 339 4.4 332 10.1
2008-07-22 06:53:31 51°13.738 2°55.719 335.3 4.8 331 10.1
2008-07-22 06:53:36 51°13.745 2°55.713 333 5.3 330 10.2
2008-07-22 06:53:41 51°13.752 2°55.707 332.2 5.8 331 5.2
2008-07-22 06:53:46 51°13.759 2°55.701 332.3 6.2 332 10.3
2008-07-22 06:53:52 51°13.768 2°55.692 332.8 6.6 330 -999
2008-07-22 06:53:57 51°13.777 2°55.685 332.6 6.9 332 10.4
2008-07-22 06:54:01 51°13.784 2°55.678 332.7 7.2 330 10.6
2008-07-22 06:54:06 51°13.793 2°55.671 333.1 7.5 332 10.4
2008-07-22 06:54:12 51°13.804 2°55.661 333.7 7.7 331 -999
2008-07-22 06:54:16 51°13.812 2°55.654 333.7 7.9 332 10.5
2008-07-22 06:54:21 51°13.822 2°55.646 333.6 8.1 332 10.2
2008-07-22 06:54:26 51°13.832 2°55.638 333.9 8.2 334 10.2
2008-07-22 06:54:32 51°13.844 2°55.628 335.9 8.4 333 10.5
2008-07-22 06:54:37 51°13.855 2°55.619 336.2 8.5 332 10.5
2008-07-22 06:54:41 51°13.863 2°55.611 334.3 8.7 330 10.5
2008-07-22 06:54:46 51°13.874 2°55.602 332.7 8.8 331 10.5
2008-07-22 06:54:52 51°13.887 2°55.591 332.3 8.9 331 10.5
2008-07-22 06:54:57 51°13.898 2°55.581 332.8 9 332 10.5
2008-07-22 06:55:01 51°13.907 2°55.574 333.4 9 332 10.5
2008-07-22 06:55:06 51°13.918 2°55.565 333.8 9.1 334 10.5
2008-07-22 06:55:11 51°13.929 2°55.556 334.7 9.1 333 10.6
2008-07-22 06:55:17 51°13.943 2°55.545 335 9.2 334 10.6
2008-07-22 06:55:21 51°13.952 2°55.538 335.1 9.2 334 10.6
2008-07-22 06:55:26 51°13.964 2°55.529 335.3 9.2 334 10.6
2008-07-22 06:55:31 51°13.975 2°55.52 335.5 9.2 333 10.7
2008-07-22 06:55:37 51°13.988 2°55.509 335.2 9.1 332 10.7
2008-07-22 06:55:41 51°13.997 2°55.501 334.9 8.9 332 10.7
2008-07-22 06:55:46 51°14.008 2°55.493 335.4 8.6 333 10.6
2008-07-22 06:55:51 51°14.018 2°55.485 335.9 8.3 334 10.3
2008-07-22 06:55:56 51°14.028 2°55.477 336.7 8.1 335 10.5
2008-07-22 06:56:01 51°14.039 2°55.47 337.6 8.2 336 10.5
2008-07-22 06:56:06 51°14.049 2°55.462 337.8 8.5 335 10.7
2008-07-22 06:56:11 51°14.06 2°55.454 337.1 8.8 336 10.7
2008-07-22 06:56:17 51°14.074 2°55.444 336.6 9 335 10.6
2008-07-22 06:56:21 51°14.083 2°55.437 336.5 9.2 335 10.7
2008-07-22 06:56:26 51°14.095 2°55.429 336.4 9.3 334 10.5
2008-07-22 06:56:31 51°14.107 2°55.42 336.2 9.4 335 10.3
2008-07-22 06:56:37 51°14.122 2°55.409 336.3 9.5 335 10.6
2008-07-22 06:56:41 51°14.131 2°55.402 336.6 9.6 335 10.6
2008-07-22 06:56:46 51°14.143 2°55.393 337 9.7 335 10.6
2008-07-22 06:56:52 51°14.158 2°55.382 337.5 9.7 334 -999
2008-07-22 06:56:57 51°14.17 2°55.371 337.2 9.7 332 10.6
2008-07-22 06:57:01 51°14.179 2°55.363 335.8 9.7 329 10.5
2008-07-22 06:57:06 51°14.19 2°55.351 333.5 9.7 325 10.5
2008-07-22 06:57:12 51°14.203 2°55.335 329.6 9.8 321 -999
2008-07-22 06:57:17 51°14.213 2°55.32 323.7 9.8 319 -999
2008-07-22 06:57:21 51°14.221 2°55.308 321.5 10 317 10.5
2008-07-22 06:57:26 51°14.231 2°55.293 320 10.3 316 10.3
2008-07-22 06:57:31 51°14.241 2°55.276 318.4 10.5 313 10.3
2008-07-22 06:57:37 51°14.253 2°55.256 316.4 10.4 313 10.6
2008-07-22 06:57:41 51°14.261 2°55.242 315 10.6 312 10.5
2008-07-22 06:57:46 51°14.271 2°55.224 314 10.6 310 10.5
2008-07-22 06:57:51 51°14.28 2°55.205 312.4 10.7 309 10.5
2008-07-22 06:57:57 51°14.292 2°55.183 311.6 10.8 310 10.2
2008-07-22 06:58:01 51°14.299 2°55.169 312.2 10.8 309 9.9
2008-07-22 06:58:06 51°14.309 2°55.15 312 10.9 308 9.9
2008-07-22 06:58:11 51°14.318 2°55.131 311 10.9 309 10.1
2008-07-22 06:58:17 51°14.329 2°55.109 310.9 10.9 308 10.4
2008-07-22 06:58:21 51°14.337 2°55.094 311.1 11 308 10.2
2008-07-22 06:58:26 51°14.346 2°55.074 310.5 11.1 306 10.7
2008-07-22 06:58:31 51°14.355 2°55.054 309.3 11.1 306 10.4
2008-07-22 06:58:37 51°14.365 2°55.03 308.7 11.1 305 10.4
2008-07-22 06:58:41 51°14.373 2°55.014 308.8 11.1 305 10.3
2008-07-22 06:58:46 51°14.381 2°54.993 308.9 11 304 10.2
2008-07-22 06:58:51 51°14.39 2°54.972 307.4 11.2 305 10.2
2008-07-22 06:58:57 51°14.4 2°54.947 307.8 11.3 303 9.9
2008-07-22 06:59:01 51°14.407 2°54.93 307.7 11.3 303 9.9
2008-07-22 06:59:06 51°14.416 2°54.909 307.2 11.4 303 10.2
2008-07-22 06:59:11 51°14.424 2°54.888 307.8 11.5 302 10.5
2008-07-22 06:59:17 51°14.434 2°54.862 308.1 11.4 301 10.3
2008-07-22 06:59:21 51°14.441 2°54.845 307.2 11.4 302 10.3
2008-07-22 06:59:26 51°14.449 2°54.824 307.6 11.4 303 10.5
2008-07-22 06:59:31 51°14.458 2°54.803 308.8 11.4 303 10.9
2008-07-22 06:59:37 51°14.469 2°54.779 309.1 11.4 305 10.5
2008-07-22 06:59:41 51°14.477 2°54.762 310.5 11.5 308 10.7
2008-07-22 06:59:46 51°14.486 2°54.742 313.9 11.4 307 10.3
2008-07-22 06:59:52 51°14.498 2°54.719 315.6 11.4 309 10.7
2008-07-22 06:59:57 51°14.509 2°54.7 316.8 11.3 311 10.8
2008-07-22 07:00:01 51°14.517 2°54.686 319 11.3 315 10.5
2008-07-22 07:00:06 51°14.529 2°54.668 322.2 11.3 316 10
2008-07-22 07:00:11 51°14.54 2°54.651 323.8 11.4 319 10
2008-07-22 07:00:17 51°14.555 2°54.633 326 11.2 323 9.9
2008-07-22 07:00:21 51°14.565 2°54.622 329.4 11 325 9.7
2008-07-22 07:00:26 51°14.578 2°54.609 332.6 10.9 328 9.7
2008-07-22 07:00:31 51°14.59 2°54.596 335.3 10.9 329 9.7
2008-07-22 07:00:36 51°14.603 2°54.584 336.8 11 331 9.5
2008-07-22 07:00:41 51°14.617 2°54.572 339.3 10.9 332 9.5
2008-07-22 07:00:46 51°14.63 2°54.56 341 11 332 9.5
2008-07-22 07:00:51 51°14.644 2°54.549 340.6 11 331 9.6
2008-07-22 07:00:56 51°14.657 2°54.537 339.8 10.9 331 9.8
2008-07-22 07:01:01 51°14.67 2°54.525 339.6 11 330 9.8
2008-07-22 07:01:06 51°14.684 2°54.514 339.4 10.8 331 9.6
2008-07-22 07:01:11 51°14.697 2°54.502 339.5 10.7 332 9.5
2008-07-22 07:01:17 51°14.712 2°54.489 339.7 10.8 332 9.6
2008-07-22 07:01:21 51°14.723 2°54.48 340.3 10.8 332 9.7
2008-07-22 07:01:26 51°14.736 2°54.47 340.7 10.7 333 9.7
2008-07-22 07:01:32 51°14.752 2°54.457 341 10.7 333 9.7
2008-07-22 07:01:37 51°14.766 2°54.446 341 10.6 333 9.5
2008-07-22 07:01:41 51°14.776 2°54.438 341.3 10.6 333 9.7
2008-07-22 07:01:46 51°14.789 2°54.427 341.4 10.6 333 9.2
2008-07-22 07:01:51 51°14.802 2°54.417 340.8 10.7 334 9.7
2008-07-22 07:01:57 51°14.818 2°54.404 340.8 10.7 332 9.3
2008-07-22 07:02:01 51°14.829 2°54.396 340.5 10.7 333 8.8
2008-07-22 07:02:06 51°14.842 2°54.385 340.1 10.8 332 9.2
2008-07-22 07:02:11 51°14.855 2°54.374 339.9 10.7 332 9.1
2008-07-22 07:02:17 51°14.871 2°54.361 339.6 10.7 332 9.2
2008-07-22 07:02:21 51°14.881 2°54.352 339.4 10.8 332 9.1
2008-07-22 07:02:26 51°14.894 2°54.341 339 10.8 332 8.7
2008-07-22 07:02:31 51°14.908 2°54.329 338.7 10.9 332 8.5
2008-07-22 07:02:37 51°14.924 2°54.315 338.4 10.9 332 8.6
2008-07-22 07:02:41 51°14.934 2°54.306 338.2 10.9 332 8.5
2008-07-22 07:02:46 51°14.948 2°54.294 338.2 11.1 331 8.4
2008-07-22 07:02:51 51°14.961 2°54.283 337.9 11.1 332 8.3
2008-07-22 07:02:57 51°14.978 2°54.269 337.8 11.1 333 8.2
2008-07-22 07:03:01 51°14.989 2°54.261 338.9 11 333 7.9
2008-07-22 07:03:06 51°15.002 2°54.25 339.3 11 333 8.1
2008-07-22 07:03:11 51°15.016 2°54.24 339.7 11 334 8.2
2008-07-22 07:03:16 51°15.03 2°54.229 340.3 11.1 334 8.3
2008-07-22 07:03:21 51°15.044 2°54.218 340.5 11.1 335 8.2
2008-07-22 07:03:26 51°15.058 2°54.207 341 11.1 333 8.1
2008-07-22 07:03:31 51°15.072 2°54.196 340.3 11.1 333 8.5
2008-07-22 07:03:37 51°15.088 2°54.183 339.8 11.2 334 8.3
2008-07-22 07:03:41 51°15.099 2°54.174 339.9 11.3 335 8.3
2008-07-22 07:03:46 51°15.113 2°54.163 340.3 11.3 334 8.3
2008-07-22 07:03:52 51°15.13 2°54.15 340.7 11.2 334 8.3
2008-07-22 07:03:57 51°15.144 2°54.14 341 11.1 334 8.1
2008-07-22 07:04:01 51°15.155 2°54.131 341.1 11.1 333 8.3
2008-07-22 07:04:06 51°15.168 2°54.12 340.5 11 334 8.4
2008-07-22 07:04:11 51°15.182 2°54.109 340.7 11 334 8.7
2008-07-22 07:04:16 51°15.196 2°54.098 340.9 11 335 8.6
2008-07-22 07:04:21 51°15.21 2°54.088 341.2 11 334 8.8
2008-07-22 07:04:25 51°15.221 2°54.079 341.3 11 333 9
2008-07-22 07:04:30 51°15.235 2°54.068 340.6 11 333 8.9
2008-07-22 07:04:35 51°15.249 2°54.057 340.3 11 334 8.9
2008-07-22 07:04:40 51°15.262 2°54.047 340.3 10.9 334 9.2
2008-07-22 07:04:45 51°15.275 2°54.036 340.6 10.9 332 9.1
2008-07-22 07:04:49 51°15.286 2°54.027 340 10.9 334 9.1
2008-07-22 07:04:54 51°15.3 2°54.016 339.8 11.1 333 8.9
2008-07-22 07:04:59 51°15.314 2°54.005 339.8 11.2 333 9
2008-07-22 07:05:04 51°15.327 2°53.994 340.3 11.1 334 9.3
2008-07-22 07:05:09 51°15.341 2°53.983 340.4 10.9 333 9.4
2008-07-22 07:05:13 51°15.352 2°53.975 340.6 11 333 9.3
2008-07-22 07:05:18 51°15.365 2°53.963 339.6 11.1 332 9.5
2008-07-22 07:05:23 51°15.379 2°53.952 339.2 11 333 9.2
2008-07-22 07:05:28 51°15.392 2°53.94 339.5 11.1 332 9.1
2008-07-22 07:05:33 51°15.406 2°53.929 339.3 11.2 331 9.3
2008-07-22 07:05:37 51°15.417 2°53.919 338.5 11.3 332 9.5
2008-07-22 07:05:43 51°15.434 2°53.905 338.7 11.4 332 9.4
2008-07-22 07:05:48 51°15.447 2°53.893 338.7 11.5 331 9.5
2008-07-22 07:05:53 51°15.462 2°53.881 338.4 11.6 332 9.6
2008-07-22 07:05:57 51°15.473 2°53.871 338.5 11.5 333 9.9
2008-07-22 07:06:03 51°15.49 2°53.858 339.5 11.4 334 9.8
2008-07-22 07:06:08 51°15.504 2°53.847 340.7 11.3 335 9.6
2008-07-22 07:06:13 51°15.518 2°53.837 341.6 11.4 335 9.7
2008-07-22 07:06:17 51°15.53 2°53.828 341.8 11.3 335 10
2008-07-22 07:06:23 51°15.547 2°53.817 342.9 11.3 336 9.8
2008-07-22 07:06:28 51°15.561 2°53.806 342.9 11.5 337 10
2008-07-22 07:06:33 51°15.576 2°53.797 343.2 11.5 338 10.1
2008-07-22 07:06:37 51°15.588 2°53.79 344.6 11.5 340 9.9
2008-07-22 07:06:43 51°15.606 2°53.779 346 11.5 339 10.1
2008-07-22 07:06:48 51°15.621 2°53.771 346.7 11.5 341 10.4
2008-07-22 07:06:53 51°15.636 2°53.761 346.8 11.3 339 10.2
2008-07-22 07:06:57 51°15.648 2°53.754 346.9 11.2 340 9.9
2008-07-22 07:07:03 51°15.666 2°53.745 347.6 11.4 341 10
2008-07-22 07:07:08 51°15.681 2°53.736 347.5 11.6 341 10.2
2008-07-22 07:07:13 51°15.695 2°53.728 348.1 11.1 341 9.8
2008-07-22 07:07:17 51°15.707 2°53.721 348.1 11.2 340 10.2
2008-07-22 07:07:23 51°15.725 2°53.712 347.5 11.3 340 10.3
2008-07-22 07:07:28 51°15.739 2°53.703 347.1 11.4 340 10.2
2008-07-22 07:07:33 51°15.754 2°53.694 346.7 11.3 339 10.2
2008-07-22 07:07:37 51°15.766 2°53.687 347 11.3 340 10.1
2008-07-22 07:07:43 51°15.783 2°53.677 347 11.3 340 10.3
2008-07-22 07:07:48 51°15.798 2°53.668 347.1 11.3 340 10.6
2008-07-22 07:07:53 51°15.813 2°53.659 347.3 11.4 340 10.9
2008-07-22 07:07:58 51°15.828 2°53.651 347.5 11.4 340 10.4
2008-07-22 07:08:03 51°15.842 2°53.642 347.5 11.3 340 10.6
2008-07-22 07:08:08 51°15.857 2°53.633 347.3 11.4 340 10.5
2008-07-22 07:08:13 51°15.872 2°53.625 347.4 11.4 340 10.4
2008-07-22 07:08:17 51°15.884 2°53.618 347.4 11.3 341 10.3
2008-07-22 07:08:23 51°15.902 2°53.608 347.8 11.5 340 10.6
2008-07-22 07:08:28 51°15.917 2°53.599 347.3 11.6 340 10.6
2008-07-22 07:08:33 51°15.931 2°53.59 346.7 11.6 338 10.9
2008-07-22 07:08:38 51°15.946 2°53.581 346 11.2 339 11
2008-07-22 07:08:43 51°15.96 2°53.571 345.5 11.1 338 10.7
2008-07-22 07:08:48 51°15.974 2°53.562 345.4 11.1 338 10.4
2008-07-22 07:08:53 51°15.989 2°53.552 345.1 11.1 337 10.4
2008-07-22 07:08:58 51°16.003 2°53.542 344.8 11.2 337 10.6
2008-07-22 07:09:03 51°16.017 2°53.533 344.8 11.2 337 10.7
2008-07-22 07:09:08 51°16.032 2°53.523 345.1 11.2 338 10.6
2008-07-22 07:09:13 51°16.046 2°53.514 345.5 11.3 338 10.8
2008-07-22 07:09:18 51°16.061 2°53.505 346 11.3 338 10.9
2008-07-22 07:09:23 51°16.076 2°53.495 346 11.3 338 11
2008-07-22 07:09:28 51°16.09 2°53.486 345.9 11.4 338 11
2008-07-22 07:09:33 51°16.105 2°53.477 346.1 11.4 339 11.1
2008-07-22 07:09:37 51°16.117 2°53.469 346.8 11.4 340 10.8
2008-07-22 07:09:43 51°16.135 2°53.459 347.1 11.4 339 11
2008-07-22 07:09:48 51°16.149 2°53.45 347.1 11.4 340 10.9
2008-07-22 07:09:53 51°16.164 2°53.441 347.2 11.5 341 10.9
2008-07-22 07:09:58 51°16.179 2°53.432 347.6 11.5 339 11.2
2008-07-22 07:10:03 51°16.194 2°53.423 347.3 11.3 339 10.9
2008-07-22 07:10:08 51°16.209 2°53.414 346.4 11.2 338 10.9
2008-07-22 07:10:13 51°16.223 2°53.405 345.7 11.3 337 11
2008-07-22 07:10:18 51°16.238 2°53.395 345.2 11.3 338 10.8
2008-07-22 07:10:23 51°16.252 2°53.385 344.9 11.2 338 10.8
2008-07-22 07:10:28 51°16.267 2°53.376 345 11.3 338 10.9
2008-07-22 07:10:33 51°16.281 2°53.367 345.5 11.3 338 10.8
2008-07-22 07:10:38 51°16.296 2°53.357 345.4 11.2 338 10.7
2008-07-22 07:10:43 51°16.31 2°53.348 345.2 11.1 338 10.8
2008-07-22 07:10:48 51°16.325 2°53.339 345.5 11.3 340 11
2008-07-22 07:10:53 51°16.34 2°53.33 346.1 11.5 339 11
2008-07-22 07:10:57 51°16.352 2°53.323 346.6 11.6 341 11.1
2008-07-22 07:11:03 51°16.37 2°53.312 347.2 11.7 340 11.1
2008-07-22 07:11:08 51°16.386 2°53.304 347.5 11.5 342 11
2008-07-22 07:11:13 51°16.401 2°53.295 347.5 11.6 340 10.9
2008-07-22 07:11:18 51°16.416 2°53.286 346.7 11.7 339 11
2008-07-22 07:11:23 51°16.431 2°53.277 346.1 11.8 339 10.9
2008-07-22 07:11:28 51°16.446 2°53.267 345.4 11.8 338 10.9
2008-07-22 07:11:33 51°16.462 2°53.258 345.3 11.9 338 11.1
2008-07-22 07:11:38 51°16.477 2°53.247 344.4 11.8 337 10.9
2008-07-22 07:11:43 51°16.492 2°53.238 345.1 11.9 339 11.1
2008-07-22 07:11:48 51°16.508 2°53.228 345.7 12 338 11.1
2008-07-22 07:11:53 51°16.523 2°53.219 345.7 12 339 11.1
2008-07-22 07:11:58 51°16.539 2°53.209 345.5 12 339 11.3
2008-07-22 07:12:03 51°16.554 2°53.199 345.3 12.1 338 10.9
2008-07-22 07:12:08 51°16.569 2°53.19 345.2 11.9 339 10.9
2008-07-22 07:12:13 51°16.585 2°53.18 344.9 11.9 338 10.7
2008-07-22 07:12:17 51°16.597 2°53.172 344.7 12 339 11
2008-07-22 07:12:23 51°16.616 2°53.16 344.8 12 339 10.9
2008-07-22 07:12:28 51°16.631 2°53.151 344.9 12 339 10.9
2008-07-22 07:12:33 51°16.647 2°53.141 344.8 12.1 339 10.8
2008-07-22 07:12:38 51°16.663 2°53.132 345.6 12.1 340 10.9
2008-07-22 07:12:43 51°16.678 2°53.123 346.4 11.8 340 10.7
2008-07-22 07:12:48 51°16.694 2°53.115 346.9 11.9 342 10.6
2008-07-22 07:12:53 51°16.71 2°53.106 347.4 12 341 10.7
2008-07-22 07:12:58 51°16.725 2°53.097 347 12.1 340 10.6
2008-07-22 07:13:03 51°16.741 2°53.088 346.1 11.9 339 10.7
2008-07-22 07:13:08 51°16.756 2°53.079 345.5 11.9 339 10.5
2008-07-22 07:13:13 51°16.772 2°53.069 345.3 12 339 10.1
2008-07-22 07:13:18 51°16.787 2°53.06 344.9 12 339 10.3
2008-07-22 07:13:23 51°16.803 2°53.05 345.1 11.9 338 9.6
2008-07-22 07:13:28 51°16.818 2°53.041 345.4 11.8 338 9.2
2008-07-22 07:13:33 51°16.833 2°53.031 345 11.8 339 8.5
2008-07-22 07:13:37 51°16.845 2°53.024 344.8 11.7 339 8.3
2008-07-22 07:13:43 51°16.864 2°53.013 345 11.6 339 7.9
2008-07-22 07:13:48 51°16.879 2°53.005 345.7 11.5 340 7.6
2008-07-22 07:13:53 51°16.894 2°52.995 345.8 11.5 339 7.7
2008-07-22 07:13:57 51°16.906 2°52.989 345.4 11.5 340 7.8
2008-07-22 07:14:03 51°16.924 2°52.977 345.4 11.7 339 7.6
2008-07-22 07:14:08 51°16.94 2°52.968 345.4 11.8 340 8.1
2008-07-22 07:14:13 51°16.955 2°52.959 345.4 11.9 340 8.4
2008-07-22 07:14:18 51°16.97 2°52.95 345.2 11.9 340 8.3
2008-07-22 07:14:23 51°16.986 2°52.941 345.2 11.9 339 8.2
2008-07-22 07:14:28 51°17.001 2°52.932 345.2 11.9 340 8.5
2008-07-22 07:14:33 51°17.016 2°52.922 345.1 12 339 8.6
2008-07-22 07:14:38 51°17.032 2°52.913 344.9 12 339 8.7
2008-07-22 07:14:43 51°17.048 2°52.903 344.9 12 340 8.8
2008-07-22 07:14:48 51°17.063 2°52.894 344.8 12 340 8.8
2008-07-22 07:14:53 51°17.079 2°52.885 345.1 12 340 8.8
2008-07-22 07:14:58 51°17.094 2°52.875 345.4 12.1 340 8.9
2008-07-22 07:15:03 51°17.11 2°52.866 345.4 12.2 340 9.2
2008-07-22 07:15:08 51°17.126 2°52.857 345.5 12 340 9.4
2008-07-22 07:15:13 51°17.141 2°52.848 345.3 11.9 340 9.3
2008-07-22 07:15:17 51°17.154 2°52.841 345.4 11.7 341 9
2008-07-22 07:15:23 51°17.172 2°52.83 345.6 11.8 340 9
2008-07-22 07:15:28 51°17.187 2°52.821 345.4 11.9 341 9.5
2008-07-22 07:15:33 51°17.203 2°52.812 345.5 11.9 340 9.3
2008-07-22 07:15:37 51°17.215 2°52.805 345.7 11.8 341 9.6
2008-07-22 07:15:43 51°17.234 2°52.795 345.8 11.9 339 9.3
2008-07-22 07:15:48 51°17.249 2°52.785 345.4 11.9 339 8.9
2008-07-22 07:15:53 51°17.265 2°52.776 345.4 11.9 340 9.1
2008-07-22 07:15:57 51°17.277 2°52.769 345.6 11.9 341 9.2
2008-07-22 07:16:03 51°17.296 2°52.76 346.7 11.9 342 9.2
2008-07-22 07:16:08 51°17.312 2°52.752 347.4 11.9 343 9
2008-07-22 07:16:13 51°17.328 2°52.744 348.3 11.9 343 9
2008-07-22 07:16:17 51°17.34 2°52.738 348.8 11.9 343 9
2008-07-22 07:16:23 51°17.359 2°52.729 349 12 343 9.2
2008-07-22 07:16:28 51°17.375 2°52.721 349 12 343 9.3
2008-07-22 07:16:33 51°17.391 2°52.714 349.1 12 344 9.5
2008-07-22 07:16:37 51°17.404 2°52.708 349.2 12 343 9.4
2008-07-22 07:16:43 51°17.423 2°52.698 348.7 12 343 9.4
2008-07-22 07:16:48 51°17.439 2°52.691 348.6 11.9 343 9.4
2008-07-22 07:16:53 51°17.455 2°52.683 348.4 11.9 342 9.4
2008-07-22 07:16:57 51°17.468 2°52.676 348.2 11.9 344 9.2
2008-07-22 07:17:03 51°17.486 2°52.667 348.2 12 342 9.3
2008-07-22 07:17:08 51°17.502 2°52.659 348.3 11.8 342 9.2
2008-07-22 07:17:13 51°17.518 2°52.651 348.3 11.7 343 9.1
2008-07-22 07:17:17 51°17.531 2°52.645 348.7 11.8 342 9.3
2008-07-22 07:17:23 51°17.549 2°52.635 348.1 12 342 9.5
2008-07-22 07:17:28 51°17.565 2°52.627 347.6 12 342 9.5
2008-07-22 07:17:33 51°17.581 2°52.619 347.7 11.8 342 9.5
2008-07-22 07:17:37 51°17.594 2°52.612 347.8 11.8 341 9.6
2008-07-22 07:17:43 51°17.613 2°52.602 347.5 11.8 342 9.5
2008-07-22 07:17:48 51°17.628 2°52.594 347.6 11.8 341 9.6
2008-07-22 07:17:53 51°17.644 2°52.586 347.6 11.8 342 9.5
2008-07-22 07:17:57 51°17.656 2°52.579 347.8 11.9 342 9.3
2008-07-22 07:18:03 51°17.675 2°52.57 347.9 11.9 342 9.7
2008-07-22 07:18:08 51°17.691 2°52.561 347.7 12 342 9.6
2008-07-22 07:18:13 51°17.707 2°52.554 347.6 11.9 342 9.6
2008-07-22 07:18:18 51°17.723 2°52.545 347.8 11.9 342 9.8
2008-07-22 07:18:23 51°17.738 2°52.537 347.5 12 341 9.7
2008-07-22 07:18:28 51°17.754 2°52.528 346.6 12 340 9.6
2008-07-22 07:18:33 51°17.77 2°52.519 345.5 12 340 9.5
2008-07-22 07:18:37 51°17.782 2°52.511 345.1 12 339 9.9
2008-07-22 07:18:43 51°17.801 2°52.5 344.7 11.9 339 9.5
2008-07-22 07:18:48 51°17.816 2°52.49 344.3 12 339 9.7
2008-07-22 07:18:53 51°17.832 2°52.48 344.3 11.9 339 9.7
2008-07-22 07:18:58 51°17.847 2°52.471 344.7 11.9 339 9.7
2008-07-22 07:19:03 51°17.862 2°52.461 344.7 12 339 9.8
2008-07-22 07:19:08 51°17.878 2°52.452 344.4 12 338 9.8
2008-07-22 07:19:13 51°17.893 2°52.443 344.5 12 340 9.9
2008-07-22 07:19:18 51°17.909 2°52.433 344.8 12 339 9.9
2008-07-22 07:19:23 51°17.925 2°52.424 344.8 12 339 9.8
2008-07-22 07:19:28 51°17.94 2°52.414 344.6 11.9 338 9.8
2008-07-22 07:19:33 51°17.956 2°52.405 344.5 12 338 9.7
2008-07-22 07:19:38 51°17.971 2°52.395 343.9 11.9 338 9.8
2008-07-22 07:19:43 51°17.986 2°52.386 344.4 12 340 9.6
2008-07-22 07:19:48 51°18.002 2°52.376 344.8 11.9 339 10
2008-07-22 07:19:53 51°18.018 2°52.368 345.1 12 340 9.9
2008-07-22 07:19:57 51°18.03 2°52.36 345.2 12 339 10
2008-07-22 07:20:03 51°18.049 2°52.35 345.1 11.9 342 10
2008-07-22 07:20:08 51°18.064 2°52.34 345.7 11.9 340 9.8
2008-07-22 07:20:13 51°18.08 2°52.332 346.5 12 341 9.9
2008-07-22 07:20:17 51°18.093 2°52.325 346.8 12.1 343 10.1
2008-07-22 07:20:23 51°18.112 2°52.315 347.6 12 341 10
2008-07-22 07:20:28 51°18.127 2°52.308 347.8 11.8 343 9.6
2008-07-22 07:20:33 51°18.143 2°52.299 348.3 12 342 10.2
2008-07-22 07:20:37 51°18.156 2°52.293 348.3 11.9 343 10
2008-07-22 07:20:43 51°18.175 2°52.284 348.4 11.9 341 10
2008-07-22 07:20:48 51°18.191 2°52.276 348 12 343 9.9
2008-07-22 07:20:53 51°18.207 2°52.268 348.1 12.1 343 10.3
2008-07-22 07:20:57 51°18.219 2°52.262 348.3 12.2 343 10.1
2008-07-22 07:21:03 51°18.238 2°52.252 348.2 12.1 343 10.2
2008-07-22 07:21:08 51°18.254 2°52.244 348.2 12 342 10.4
2008-07-22 07:21:13 51°18.27 2°52.236 347.6 12.1 343 10.2
2008-07-22 07:21:17 51°18.283 2°52.23 347.7 12.1 342 10.3
2008-07-22 07:21:23 51°18.302 2°52.22 347.9 12 342 10.5
2008-07-22 07:21:28 51°18.318 2°52.212 348 12.1 341 10.3
2008-07-22 07:21:33 51°18.334 2°52.203 347.3 12.1 342 10.6
2008-07-22 07:21:37 51°18.346 2°52.196 346.9 12.2 341 10.5
2008-07-22 07:21:43 51°18.365 2°52.186 347.1 12.1 342 10.5
2008-07-22 07:21:48 51°18.381 2°52.177 347.1 12.1 341 10.6
2008-07-22 07:21:53 51°18.397 2°52.168 346.8 12.2 341 10.4
2008-07-22 07:21:57 51°18.41 2°52.161 347.1 12.2 341 10.9
2008-07-22 07:22:03 51°18.429 2°52.151 347.4 12.1 341 10.7
2008-07-22 07:22:08 51°18.444 2°52.142 347 12.1 340 10.9
2008-07-22 07:22:13 51°18.46 2°52.134 346.9 12 341 11.1
2008-07-22 07:22:17 51°18.473 2°52.127 347.2 11.8 341 10.9
2008-07-22 07:22:23 51°18.492 2°52.117 347.2 11.9 341 10.7
2008-07-22 07:22:28 51°18.508 2°52.108 347.5 12 341 10.8
2008-07-22 07:22:33 51°18.523 2°52.1 347.5 12 342 10.9
2008-07-22 07:22:38 51°18.539 2°52.091 347.3 12 341 11
2008-07-22 07:22:43 51°18.555 2°52.084 347.9 11.8 345 11
2008-07-22 07:22:48 51°18.571 2°52.077 349.3 12 345 11.2
2008-07-22 07:22:53 51°18.587 2°52.071 350.7 12 347 11.3
2008-07-22 07:22:57 51°18.6 2°52.066 352.2 12.1 348 11.5
2008-07-22 07:23:03 51°18.62 2°52.059 353.1 11.9 348 11.4
2008-07-22 07:23:08 51°18.636 2°52.055 353.8 12 350 11.5
2008-07-22 07:23:13 51°18.653 2°52.05 354.7 12 350 11.9
2008-07-22 07:23:18 51°18.669 2°52.046 355.5 12 351 12
2008-07-22 07:23:23 51°18.685 2°52.042 356.3 12 351 12
2008-07-22 07:23:28 51°18.702 2°52.038 356.3 11.9 351 12
2008-07-22 07:23:33 51°18.718 2°52.034 357 11.9 350 11.9
2008-07-22 07:23:38 51°18.734 2°52.029 357 11.9 351 12.1
2008-07-22 07:23:43 51°18.751 2°52.025 356.7 12 350 12.3
2008-07-22 07:23:48 51°18.767 2°52.02 356.1 12 350 12.3
2008-07-22 07:23:53 51°18.784 2°52.016 355.6 12.1 350 12.5
2008-07-22 07:23:58 51°18.8 2°52.011 355.5 12 350 12.5
2008-07-22 07:24:03 51°18.817 2°52.006 355.6 12 349 12.5
2008-07-22 07:24:08 51°18.833 2°52.002 355.8 12 351 12.6
2008-07-22 07:24:13 51°18.85 2°51.997 356.1 12 349 12.8
2008-07-22 07:24:17 51°18.863 2°51.994 356.1 11.9 351 12.6
2008-07-22 07:24:23 51°18.883 2°51.989 356.6 12 351 12.8
2008-07-22 07:24:28 51°18.899 2°51.984 356.6 11.9 351 12.9
2008-07-22 07:24:33 51°18.915 2°51.98 356.9 11.9 349 12.9
2008-07-22 07:24:37 51°18.929 2°51.975 355.1 11.8 350 12.9
2008-07-22 07:24:43 51°18.948 2°51.97 355 11.8 348 13
2008-07-22 07:24:48 51°18.964 2°51.965 354.8 11.9 349 13
2008-07-22 07:24:53 51°18.98 2°51.96 354.9 11.9 349 13.4
2008-07-22 07:24:57 51°18.993 2°51.955 355.4 11.8 350 13.5
2008-07-22 07:25:03 51°19.013 2°51.95 356.2 11.9 349 13.6
2008-07-22 07:25:08 51°19.029 2°51.945 356.1 11.8 350 13.5
2008-07-22 07:25:13 51°19.045 2°51.941 356.2 11.8 350 13.7
2008-07-22 07:25:17 51°19.058 2°51.936 356.2 11.8 348 13.7
2008-07-22 07:25:23 51°19.077 2°51.93 354.9 11.7 349 13.8
2008-07-22 07:25:28 51°19.093 2°51.924 354.7 11.8 347 13.9
2008-07-22 07:25:33 51°19.109 2°51.919 354.1 11.7 348 14.1
2008-07-22 07:25:38 51°19.125 2°51.912 353.7 11.7 347 13.7
2008-07-22 07:25:43 51°19.14 2°51.908 353.9 11.7 348 13.4
2008-07-22 07:25:48 51°19.156 2°51.902 354.2 11.6 348 13.6
2008-07-22 07:25:53 51°19.172 2°51.897 355 11.4 349 13.6
2008-07-22 07:25:57 51°19.185 2°51.893 355.6 11.5 350 14
2008-07-22 07:26:03 51°19.204 2°51.888 356.2 11.7 350 14.4
2008-07-22 07:26:08 51°19.22 2°51.883 356.3 11.6 350 14.2
2008-07-22 07:26:13 51°19.236 2°51.878 355.6 11.6 348 14.2
2008-07-22 07:26:18 51°19.252 2°51.873 354.9 11.7 348 14.5
2008-07-22 07:26:23 51°19.268 2°51.867 354.8 11.6 349 14.6
2008-07-22 07:26:28 51°19.284 2°51.862 354.8 11.7 347 14.4
2008-07-22 07:26:33 51°19.299 2°51.857 354.2 11.7 348 14.7
2008-07-22 07:26:38 51°19.315 2°51.851 354.2 11.7 348 14.7
2008-07-22 07:26:43 51°19.331 2°51.846 354.1 11.8 348 14.5
2008-07-22 07:26:48 51°19.347 2°51.84 354 11.7 347 14.9
2008-07-22 07:26:53 51°19.362 2°51.835 354.1 11.6 348 14.8
2008-07-22 07:26:58 51°19.378 2°51.829 354.4 11.6 347 14.5
2008-07-22 07:27:03 51°19.393 2°51.824 354.1 11.5 348 14.7
2008-07-22 07:27:08 51°19.409 2°51.819 354.5 11.6 348 15
2008-07-22 07:27:13 51°19.425 2°51.813 354.8 11.7 348 14.8
2008-07-22 07:27:17 51°19.438 2°51.809 354.3 11.7 347 15
2008-07-22 07:27:23 51°19.457 2°51.803 354.4 11.7 349 14.8
2008-07-22 07:27:28 51°19.473 2°51.798 354.8 11.7 349 14.6
2008-07-22 07:27:33 51°19.489 2°51.793 355.4 11.7 349 14.9
2008-07-22 07:27:38 51°19.505 2°51.789 356 11.6 351 15
2008-07-22 07:27:43 51°19.521 2°51.785 357.6 11.7 351 14.9
2008-07-22 07:27:48 51°19.537 2°51.781 357.5 11.8 351 15.1
2008-07-22 07:27:53 51°19.553 2°51.777 358.4 11.6 352 14.9
2008-07-22 07:27:58 51°19.568 2°51.773 358.5 11.7 351 14.8
2008-07-22 07:28:03 51°19.584 2°51.769 357.7 11.6 351 15
2008-07-22 07:28:08 51°19.6 2°51.765 357.8 11.7 350 14.9
2008-07-22 07:28:13 51°19.616 2°51.761 357.1 11.6 350 15
2008-07-22 07:28:18 51°19.632 2°51.756 356.5 11.6 349 15
2008-07-22 07:28:23 51°19.648 2°51.751 355.8 11.7 350 14.9
2008-07-22 07:28:28 51°19.664 2°51.747 356.3 11.6 351 15
2008-07-22 07:28:33 51°19.68 2°51.743 356.9 11.6 349 15
2008-07-22 07:28:38 51°19.695 2°51.739 356.9 11.6 352 14.7
2008-07-22 07:28:43 51°19.712 2°51.735 357.3 11.7 351 14.7
2008-07-22 07:28:48 51°19.728 2°51.731 357.8 11.7 351 14.7
2008-07-22 07:28:53 51°19.743 2°51.727 358.1 11.6 351 14.4
2008-07-22 07:28:58 51°19.759 2°51.723 357.6 11.6 350 14.7
2008-07-22 07:29:03 51°19.776 2°51.718 356.9 11.6 350 14.5
2008-07-22 07:29:08 51°19.792 2°51.714 357 11.6 350 14.4
2008-07-22 07:29:13 51°19.808 2°51.709 356.9 11.6 350 14.4
2008-07-22 07:29:17 51°19.82 2°51.705 356.6 11.7 350 14.5
2008-07-22 07:29:23 51°19.84 2°51.7 356.7 11.8 350 14.6
2008-07-22 07:29:28 51°19.855 2°51.695 356.4 11.5 350 13.9
2008-07-22 07:29:33 51°19.871 2°51.692 357.2 11.6 351 14
2008-07-22 07:29:38 51°19.887 2°51.687 357.7 11.8 351 14
2008-07-22 07:29:43 51°19.903 2°51.684 358.3 11.7 352 13.9
2008-07-22 07:29:48 51°19.919 2°51.68 358.5 11.6 351 13.7
2008-07-22 07:29:53 51°19.935 2°51.676 358.4 11.7 352 13.8
2008-07-22 07:29:58 51°19.951 2°51.672 358.5 11.8 352 13.7
2008-07-22 07:30:03 51°19.967 2°51.669 358.5 11.7 352 13.8
2008-07-22 07:30:08 51°19.983 2°51.666 358.7 11.8 352 13.8
2008-07-22 07:30:13 51°19.999 2°51.662 359.1 11.9 352 13.8
2008-07-22 07:30:18 51°20.015 2°51.659 358.8 11.7 352 14
2008-07-22 07:30:23 51°20.031 2°51.655 358.6 11.5 352 13.4
2008-07-22 07:30:28 51°20.047 2°51.651 358.7 11.6 353 13.1
2008-07-22 07:30:33 51°20.063 2°51.649 359.7 11.6 354 13
2008-07-22 07:30:37 51°20.076 2°51.646 -999 11.6 353 13
2008-07-22 07:30:43 51°20.096 2°51.643 0.4 11.8 354 12.9
2008-07-22 07:30:48 51°20.112 2°51.639 359.9 11.7 352 12.8
2008-07-22 07:30:53 51°20.128 2°51.636 359.2 11.6 353 12.6
2008-07-22 07:30:58 51°20.144 2°51.633 359.6 11.7 353 12.4
2008-07-22 07:31:03 51°20.16 2°51.63 359.9 11.8 353 12.1
2008-07-22 07:31:08 51°20.176 2°51.626 359.9 11.8 353 11.7
2008-07-22 07:31:13 51°20.193 2°51.623 359.9 11.7 353 11.5
2008-07-22 07:31:18 51°20.209 2°51.619 359.5 11.8 352 11.7
2008-07-22 07:31:23 51°20.225 2°51.616 359.2 11.7 353 11.7
2008-07-22 07:31:28 51°20.241 2°51.612 358.7 11.8 351 11.6
2008-07-22 07:31:33 51°20.257 2°51.609 359.2 11.9 353 11.8
2008-07-22 07:31:38 51°20.274 2°51.606 359.8 11.9 354 12
2008-07-22 07:31:43 51°20.29 2°51.603 0.1 11.9 354 12.1
2008-07-22 07:31:48 51°20.306 2°51.6 0.4 12 353 11.9
2008-07-22 07:31:53 51°20.322 2°51.597 0.6 11.9 354 12.2
2008-07-22 07:31:57 51°20.335 2°51.594 0.5 11.8 353 12.1
2008-07-22 07:32:03 51°20.355 2°51.591 0.5 11.8 354 12.4
2008-07-22 07:32:08 51°20.371 2°51.588 0.5 11.8 353 12.9
2008-07-22 07:32:13 51°20.387 2°51.584 359.4 11.8 352 12.9
2008-07-22 07:32:18 51°20.403 2°51.581 359.2 11.7 353 12.8
2008-07-22 07:32:23 51°20.419 2°51.578 359.2 11.8 353 12.6
2008-07-22 07:32:28 51°20.436 2°51.574 359 11.7 353 12.7
2008-07-22 07:32:33 51°20.452 2°51.571 359.4 11.9 353 13
2008-07-22 07:32:38 51°20.468 2°51.569 359.9 11.9 354 13.3
2008-07-22 07:32:43 51°20.485 2°51.566 0.4 11.9 354 13.4
2008-07-22 07:32:48 51°20.501 2°51.563 0.5 11.9 354 13.6
2008-07-22 07:32:53 51°20.518 2°51.561 0.6 11.9 354 13.8
2008-07-22 07:32:58 51°20.534 2°51.557 0.3 12 353 13.9
2008-07-22 07:33:03 51°20.551 2°51.555 0.2 12 354 14.1
2008-07-22 07:33:08 51°20.567 2°51.552 0.3 12 355 14
2008-07-22 07:33:13 51°20.584 2°51.55 0.4 12 355 14.4
2008-07-22 07:33:18 51°20.6 2°51.547 0.6 11.9 354 14.6
2008-07-22 07:33:23 51°20.617 2°51.545 0.6 11.8 354 14.5
2008-07-22 07:33:28 51°20.633 2°51.542 359.8 11.9 353 14.3
2008-07-22 07:33:33 51°20.649 2°51.539 359.1 11.9 354 14.4
2008-07-22 07:33:38 51°20.666 2°51.535 358.8 11.9 352 14.5
2008-07-22 07:33:43 51°20.682 2°51.532 358.4 11.7 353 14.1
2008-07-22 07:33:48 51°20.698 2°51.528 358.5 11.8 352 14.5
2008-07-22 07:33:53 51°20.714 2°51.525 358.4 11.8 354 14.5
2008-07-22 07:33:57 51°20.728 2°51.523 359 11.8 353 14.9
2008-07-22 07:34:03 51°20.747 2°51.52 359.3 11.7 355 14.6
2008-07-22 07:34:08 51°20.763 2°51.517 -999 11.9 355 15
2008-07-22 07:34:13 51°20.78 2°51.515 0.1 11.8 355 15.4
2008-07-22 07:34:18 51°20.796 2°51.513 0.4 11.7 354 15.4
2008-07-22 07:34:23 51°20.813 2°51.51 0.5 11.5 355 15.1
2008-07-22 07:34:28 51°20.828 2°51.508 0.4 11.5 354 15.3
2008-07-22 07:34:33 51°20.844 2°51.506 0.6 11.7 355 15.9
2008-07-22 07:34:38 51°20.861 2°51.503 0.2 11.7 354 16.1
2008-07-22 07:34:43 51°20.877 2°51.501 359.3 11.6 355 16.1
2008-07-22 07:34:48 51°20.893 2°51.499 359.9 11.7 355 16.3
2008-07-22 07:34:53 51°20.909 2°51.497 0.1 11.8 356 16.7
2008-07-22 07:34:58 51°20.925 2°51.493 358.9 11.7 353 16.8
2008-07-22 07:35:03 51°20.941 2°51.491 358.5 11.7 355 16.7
2008-07-22 07:35:08 51°20.958 2°51.488 359.1 11.6 355 17.3
2008-07-22 07:35:13 51°20.974 2°51.486 359.3 11.7 353 17.3
2008-07-22 07:35:17 51°20.987 2°51.483 358.5 11.7 353 17.4
2008-07-22 07:35:23 51°21.006 2°51.48 358.4 11.7 353 17.8
2008-07-22 07:35:28 51°21.023 2°51.477 358.2 11.8 353 17.9
2008-07-22 07:35:33 51°21.039 2°51.474 357.7 11.8 354 17.8
2008-07-22 07:35:38 51°21.055 2°51.471 358 11.8 353 18.1
2008-07-22 07:35:43 51°21.072 2°51.468 358.1 11.8 353 18.3
2008-07-22 07:35:48 51°21.088 2°51.464 357.8 11.9 353 18.6
2008-07-22 07:35:53 51°21.105 2°51.461 358 11.8 353 18.7
2008-07-22 07:35:58 51°21.121 2°51.458 358 11.7 353 18.9
2008-07-22 07:36:03 51°21.137 2°51.455 357.7 11.8 353 19.1
2008-07-22 07:36:08 51°21.154 2°51.452 357.9 11.9 353 19.6
2008-07-22 07:36:13 51°21.17 2°51.449 358.5 11.9 354 19.8
2008-07-22 07:36:18 51°21.186 2°51.447 358.9 11.9 355 20
2008-07-22 07:36:23 51°21.203 2°51.445 359.2 11.9 356 20.1
2008-07-22 07:36:28 51°21.219 2°51.443 359.8 11.9 356 20.5
2008-07-22 07:36:33 51°21.235 2°51.442 -999 11.9 357 20.2
2008-07-22 07:36:37 51°21.249 2°51.44 359.3 11.8 354 20.5
2008-07-22 07:36:43 51°21.268 2°51.438 359.4 11.8 357 20.6
2008-07-22 07:36:48 51°21.285 2°51.436 359.6 11.8 356 21
2008-07-22 07:36:53 51°21.301 2°51.435 0.1 11.8 357 21.3
2008-07-22 07:36:58 51°21.317 2°51.433 -999 11.7 355 21.3
2008-07-22 07:37:03 51°21.333 2°51.431 359.3 11.6 357 21.4
2008-07-22 07:37:08 51°21.349 2°51.429 359.7 11.5 356 21.5
2008-07-22 07:37:13 51°21.365 2°51.428 359.9 11.6 357 21.8
2008-07-22 07:37:18 51°21.381 2°51.426 -999 11.7 357 21.8
2008-07-22 07:37:23 51°21.398 2°51.424 359.9 11.8 356 21.9
2008-07-22 07:37:28 51°21.414 2°51.423 359.4 11.6 355 22.1
2008-07-22 07:37:33 51°21.43 2°51.42 358.5 11.8 355 22.1
2008-07-22 07:37:38 51°21.446 2°51.418 358.5 11.8 355 22.4
2008-07-22 07:37:43 51°21.462 2°51.415 358.4 11.8 356 22.5
2008-07-22 07:37:48 51°21.478 2°51.413 358.5 11.7 355 22.1
2008-07-22 07:37:53 51°21.494 2°51.411 358.9 11.7 357 22.5
2008-07-22 07:37:57 51°21.507 2°51.41 359.4 11.8 355 22.6
2008-07-22 07:38:03 51°21.527 2°51.408 359.9 11.8 357 22.8
2008-07-22 07:38:08 51°21.543 2°51.406 359.7 11.8 356 22.5
2008-07-22 07:38:13 51°21.56 2°51.404 359.7 11.9 356 22.6
2008-07-22 07:38:18 51°21.576 2°51.403 359.8 11.9 357 22.8
2008-07-22 07:38:23 51°21.593 2°51.401 -999 12 356 22.9
2008-07-22 07:38:28 51°21.609 2°51.4 0.1 11.8 358 22.8
2008-07-22 07:38:33 51°21.625 2°51.398 0.3 11.9 356 22.9
2008-07-22 07:38:38 51°21.642 2°51.397 0.2 11.9 357 22.9
2008-07-22 07:38:43 51°21.658 2°51.395 359.7 11.9 356 22.9
2008-07-22 07:38:48 51°21.675 2°51.393 0.1 11.9 356 23.1
2008-07-22 07:38:53 51°21.692 2°51.392 0.2 11.8 357 22.8
2008-07-22 07:38:58 51°21.708 2°51.39 0.6 11.8 356 22.8
2008-07-22 07:39:03 51°21.724 2°51.388 0.3 12 356 23.2
2008-07-22 07:39:08 51°21.741 2°51.386 359.9 12.1 356 23.5
2008-07-22 07:39:13 51°21.757 2°51.384 359.2 11.8 356 23.3
2008-07-22 07:39:17 51°21.77 2°51.382 359.1 11.7 355 22.8
2008-07-22 07:39:23 51°21.789 2°51.379 358.9 11.5 355 22.8
2008-07-22 07:39:28 51°21.805 2°51.377 358.5 11.5 355 22.5
2008-07-22 07:39:33 51°21.822 2°51.376 359.2 11.6 356 22.8
2008-07-22 07:39:38 51°21.838 2°51.374 359.9 11.8 356 22.9
2008-07-22 07:39:43 51°21.854 2°51.372 -999 11.8 354 22.8
2008-07-22 07:39:48 51°21.871 2°51.369 359.2 11.8 355 22.8
2008-07-22 07:39:53 51°21.887 2°51.366 358.5 11.9 353 22.9
2008-07-22 07:39:58 51°21.903 2°51.364 357.9 11.9 355 23
2008-07-22 07:40:03 51°21.92 2°51.361 358.2 11.9 354 22.9
2008-07-22 07:40:08 51°21.936 2°51.359 358.2 12 354 22.9
2008-07-22 07:40:13 51°21.953 2°51.356 357.8 12 354 23.1
2008-07-22 07:40:18 51°21.969 2°51.353 357.5 11.9 353 23
2008-07-22 07:40:23 51°21.986 2°51.35 357.1 12 354 22.9
2008-07-22 07:40:28 51°22.002 2°51.346 356.9 12 352 22.9
2008-07-22 07:40:33 51°22.019 2°51.343 356.7 11.9 353 22.6
2008-07-22 07:40:37 51°22.032 2°51.34 356.4 11.9 353 22.4
2008-07-22 07:40:43 51°22.051 2°51.336 356.4 11.9 352 22.2
2008-07-22 07:40:48 51°22.068 2°51.333 357.3 11.8 353 22.1
2008-07-22 07:40:53 51°22.084 2°51.33 357.3 11.9 353 21.7
2008-07-22 07:40:58 51°22.101 2°51.327 357 11.9 353 21.8
2008-07-22 07:41:03 51°22.117 2°51.323 357.1 11.9 354 22
2008-07-22 07:41:08 51°22.134 2°51.321 358 11.9 354 21.7
2008-07-22 07:41:13 51°22.15 2°51.319 358.8 11.9 355 21.8
2008-07-22 07:41:18 51°22.167 2°51.316 359.1 11.8 355 21.7
2008-07-22 07:41:23 51°22.184 2°51.313 358.7 12 354 21.9
2008-07-22 07:41:28 51°22.2 2°51.311 359.2 11.7 355 21.6
2008-07-22 07:41:33 51°22.216 2°51.308 359.1 11.8 354 21.9
2008-07-22 07:41:38 51°22.233 2°51.306 359.2 11.9 355 22.1
2008-07-22 07:41:43 51°22.249 2°51.304 359.3 12 356 22.4
2008-07-22 07:41:48 51°22.266 2°51.302 359.5 12 354 22.4
2008-07-22 07:41:53 51°22.282 2°51.3 359.4 11.9 355 22.1
2008-07-22 07:41:57 51°22.295 2°51.298 359.3 11.9 354 21.9
2008-07-22 07:42:03 51°22.315 2°51.294 358.5 11.8 354 21.9
2008-07-22 07:42:08 51°22.332 2°51.293 359.4 11.8 354 21.9
2008-07-22 07:42:13 51°22.348 2°51.29 358.9 11.9 355 22
2008-07-22 07:42:18 51°22.364 2°51.287 358.5 11.9 354 22.1
2008-07-22 07:42:23 51°22.381 2°51.284 358.4 12 355 22.2
2008-07-22 07:42:28 51°22.397 2°51.28 358 11.9 352 22.2
2008-07-22 07:42:33 51°22.413 2°51.278 357.5 11.7 354 22.2
2008-07-22 07:42:38 51°22.429 2°51.274 357.5 11.8 352 22.1
2008-07-22 07:42:43 51°22.446 2°51.272 357.5 11.9 354 22.2
2008-07-22 07:42:48 51°22.462 2°51.269 357.3 11.8 354 21.7
2008-07-22 07:42:53 51°22.479 2°51.266 357.7 11.9 353 21.7
2008-07-22 07:42:58 51°22.495 2°51.263 358.2 11.9 354 21.9
2008-07-22 07:43:03 51°22.512 2°51.26 358.3 12 354 21.8
2008-07-22 07:43:08 51°22.528 2°51.258 358.5 12.1 355 21.9
2008-07-22 07:43:13 51°22.545 2°51.255 358.4 12 354 21.6
2008-07-22 07:43:18 51°22.561 2°51.252 357.8 12 354 21.9
2008-07-22 07:43:23 51°22.578 2°51.249 357.6 12 353 21.8
2008-07-22 07:43:28 51°22.595 2°51.246 357.2 12.1 354 21.8
2008-07-22 07:43:33 51°22.611 2°51.243 357.5 12.1 353 21.7
2008-07-22 07:43:38 51°22.628 2°51.24 357.2 12.1 354 21.8
2008-07-22 07:43:43 51°22.644 2°51.237 357.3 11.8 354 21.9
2008-07-22 07:43:48 51°22.661 2°51.234 358.1 11.8 354 21.5
2008-07-22 07:43:53 51°22.677 2°51.232 358.2 11.9 355 21.8
2008-07-22 07:43:57 51°22.69 2°51.23 358.7 11.9 354 21.6
2008-07-22 07:44:03 51°22.71 2°51.227 358.5 12 354 21.5
2008-07-22 07:44:08 51°22.727 2°51.225 358.5 12.1 356 21.7
2008-07-22 07:44:13 51°22.743 2°51.222 358.5 12.1 354 21.5
2008-07-22 07:44:18 51°22.76 2°51.221 358.6 12 356 21.3
2008-07-22 07:44:23 51°22.776 2°51.218 358.5 11.9 355 21
2008-07-22 07:44:28 51°22.793 2°51.215 358.1 12.1 354 21.3
2008-07-22 07:44:33 51°22.81 2°51.213 358.2 12 355 21.2
2008-07-22 07:44:38 51°22.827 2°51.21 358.2 12.1 355 21.1
2008-07-22 07:44:43 51°22.843 2°51.208 357.8 12.1 355 20.8
2008-07-22 07:44:48 51°22.86 2°51.205 358 12 355 21
2008-07-22 07:44:53 51°22.877 2°51.202 357.8 12 354 20.5
2008-07-22 07:44:58 51°22.893 2°51.2 357.6 12 354 20.5
2008-07-22 07:45:03 51°22.91 2°51.197 356.9 12.1 354 20.9
2008-07-22 07:45:08 51°22.927 2°51.194 357.4 12.1 354 20.8
2008-07-22 07:45:13 51°22.943 2°51.192 357.7 12 355 20.1
2008-07-22 07:45:17 51°22.957 2°51.189 358 12 354 19.3
2008-07-22 07:45:23 51°22.977 2°51.186 357.2 12 354 18.5
2008-07-22 07:45:28 51°22.993 2°51.183 356.8 12.1 353 17.8
2008-07-22 07:45:33 51°23.01 2°51.18 356.5 12.1 353 17.3
2008-07-22 07:45:38 51°23.027 2°51.176 356 12.1 352 15.8
2008-07-22 07:45:43 51°23.043 2°51.172 356.1 12.1 353 15.9
2008-07-22 07:45:48 51°23.06 2°51.17 356.8 12.2 354 16.4
2008-07-22 07:45:53 51°23.077 2°51.168 357.5 12.2 356 15.9
2008-07-22 07:45:58 51°23.094 2°51.165 358.3 12.2 356 13.8
2008-07-22 07:46:03 51°23.11 2°51.164 359.2 12.2 356 13.8
2008-07-22 07:46:08 51°23.127 2°51.161 357.8 11.8 355 14.6
2008-07-22 07:46:13 51°23.143 2°51.159 358.3 11.8 356 13.5
2008-07-22 07:46:18 51°23.16 2°51.158 358.8 12 356 13.3
2008-07-22 07:46:23 51°23.176 2°51.155 358.5 11.9 355 14
2008-07-22 07:46:28 51°23.193 2°51.153 358.5 11.8 356 14.1
2008-07-22 07:46:33 51°23.209 2°51.151 358.3 12.2 356 13.7
2008-07-22 07:46:37 51°23.223 2°51.15 358 12 355 12.4
2008-07-22 07:46:43 51°23.243 2°51.146 357.7 12.1 354 13.1
2008-07-22 07:46:48 51°23.259 2°51.144 358.1 12 355 13.6
2008-07-22 07:46:53 51°23.276 2°51.142 357.8 12.2 356 13.5
2008-07-22 07:46:58 51°23.293 2°51.14 357.8 12.2 355 14.1
2008-07-22 07:47:03 51°23.31 2°51.138 357.9 12 355 14.5
2008-07-22 07:47:08 51°23.326 2°51.135 357.8 11.9 355 14.2
2008-07-22 07:47:13 51°23.342 2°51.133 357.4 11.8 355 13.9
2008-07-22 07:47:18 51°23.359 2°51.13 357.3 11.9 355 14.3
2008-07-22 07:47:23 51°23.376 2°51.127 356.8 12.1 354 14.5
2008-07-22 07:47:28 51°23.392 2°51.124 356.4 12 355 14.1
2008-07-22 07:47:33 51°23.409 2°51.122 357.1 12.1 354 13.5
2008-07-22 07:47:38 51°23.426 2°51.119 357 12.2 355 12
2008-07-22 07:47:43 51°23.442 2°51.117 357 12 354 13.6
2008-07-22 07:47:48 51°23.459 2°51.114 357.4 12.2 355 14.8
2008-07-22 07:47:53 51°23.476 2°51.112 357.6 12.2 355 15.4
2008-07-22 07:47:57 51°23.49 2°51.111 358.3 12 357 14.4
2008-07-22 07:48:03 51°23.509 2°51.108 358.4 12.1 354 14.9
2008-07-22 07:48:08 51°23.526 2°51.106 357.7 11.9 355 15.4
2008-07-22 07:48:13 51°23.543 2°51.103 357 11.8 353 15
2008-07-22 07:48:18 51°23.559 2°51.1 355.9 11.9 354 15.2
2008-07-22 07:48:23 51°23.575 2°51.097 355.9 11.9 355 15.3
2008-07-22 07:48:28 51°23.592 2°51.095 356 11.9 353 15.8
2008-07-22 07:48:33 51°23.609 2°51.092 355.9 12 354 16.3
2008-07-22 07:48:38 51°23.625 2°51.089 355.7 11.7 353 16.4
2008-07-22 07:48:43 51°23.641 2°51.086 355.6 11.7 354 16.5
2008-07-22 07:48:48 51°23.658 2°51.083 356 11.9 354 16.9
2008-07-22 07:48:53 51°23.675 2°51.08 355.9 12 354 17.1
2008-07-22 07:48:58 51°23.691 2°51.077 356.3 12.1 354 17.3
2008-07-22 07:49:03 51°23.708 2°51.075 356.3 12.1 354 17.5
2008-07-22 07:49:08 51°23.725 2°51.071 356.1 12.1 353 17.6
2008-07-22 07:49:13 51°23.741 2°51.068 356.1 12.1 353 17.2
2008-07-22 07:49:17 51°23.755 2°51.066 356.2 12.1 354 15.7
2008-07-22 07:49:23 51°23.775 2°51.062 356.3 12.1 353 17.6
2008-07-22 07:49:28 51°23.791 2°51.059 356.3 12 354 18.3
2008-07-22 07:49:33 51°23.808 2°51.056 356.5 12.1 354 18.6
2008-07-22 07:49:38 51°23.825 2°51.053 356.8 12.1 355 18.7
2008-07-22 07:49:43 51°23.842 2°51.05 357.2 12.1 353 19
2008-07-22 07:49:48 51°23.859 2°51.048 357.2 12 354 18.9
2008-07-22 07:49:53 51°23.875 2°51.044 356.7 11.9 354 18.5
2008-07-22 07:49:58 51°23.892 2°51.041 357 12.1 354 18.7
2008-07-22 07:50:03 51°23.908 2°51.038 356.7 12 353 18.3
2008-07-22 07:50:08 51°23.925 2°51.035 356.7 12.1 355 16.1
2008-07-22 07:50:13 51°23.941 2°51.032 356.8 11.9 352 17.6
2008-07-22 07:50:18 51°23.957 2°51.029 356 11.7 354 18.7
2008-07-22 07:50:23 51°23.974 2°51.025 356 12 353 19.5
2008-07-22 07:50:28 51°23.991 2°51.021 355.8 12.1 352 19.8
2008-07-22 07:50:33 51°24.007 2°51.018 356.1 11.8 352 19.8
2008-07-22 07:50:37 51°24.02 2°51.016 355.9 11.8 353 19.8
2008-07-22 07:50:43 51°24.039 2°51.012 356.4 11.8 353 19.8
2008-07-22 07:50:48 51°24.056 2°51.009 356.3 11.9 353 20
2008-07-22 07:50:53 51°24.072 2°51.005 355.7 12 352 20.2
2008-07-22 07:50:58 51°24.089 2°51.001 355.6 12 352 20.4
2008-07-22 07:51:03 51°24.105 2°50.997 355.3 11.9 352 20.4
2008-07-22 07:51:08 51°24.122 2°50.994 355.8 12 353 20.6
2008-07-22 07:51:13 51°24.139 2°50.99 355.8 12.1 351 20.8
2008-07-22 07:51:18 51°24.155 2°50.988 355.9 12 353 20.7
2008-07-22 07:51:23 51°24.172 2°50.984 356.3 12 353 20.8
2008-07-22 07:51:28 51°24.189 2°50.981 356.4 12 353 20.8
2008-07-22 07:51:33 51°24.205 2°50.977 356.3 12.1 352 20.8
2008-07-22 07:51:38 51°24.222 2°50.973 356.3 12.1 353 20.8
2008-07-22 07:51:43 51°24.239 2°50.97 356.4 12 352 21
2008-07-22 07:51:48 51°24.255 2°50.967 356.7 11.7 353 20.8
2008-07-22 07:51:53 51°24.271 2°50.963 356.5 11.7 353 20.7
2008-07-22 07:51:57 51°24.284 2°50.961 356.5 11.8 352 21.1
2008-07-22 07:52:03 51°24.303 2°50.957 356.4 11.7 353 20.9
2008-07-22 07:52:08 51°24.319 2°50.954 356 11.7 352 21.1
2008-07-22 07:52:13 51°24.336 2°50.95 355.9 11.8 352 20.8
2008-07-22 07:52:18 51°24.351 2°50.946 355.5 11.8 352 20.7
2008-07-22 07:52:23 51°24.368 2°50.942 355.6 11.6 352 20.9
2008-07-22 07:52:28 51°24.384 2°50.939 356.3 11.6 353 20.9
2008-07-22 07:52:33 51°24.4 2°50.935 356.2 11.7 352 20.6
2008-07-22 07:52:38 51°24.416 2°50.932 356.3 11.6 352 20.4
2008-07-22 07:52:43 51°24.432 2°50.928 356 11.8 351 20.4
2008-07-22 07:52:48 51°24.448 2°50.924 355.5 11.9 351 20.5
2008-07-22 07:52:53 51°24.465 2°50.92 354.8 11.9 351 20.9
2008-07-22 07:52:57 51°24.478 2°50.918 355.3 11.9 352 21.2
2008-07-22 07:53:03 51°24.497 2°50.913 355 11.9 351 21.3
2008-07-22 07:53:08 51°24.514 2°50.909 355.6 11.8 351 21.4
2008-07-22 07:53:13 51°24.53 2°50.906 356 11.9 353 21.4
2008-07-22 07:53:17 51°24.543 2°50.903 356.2 11.8 351 21.3
2008-07-22 07:53:23 51°24.563 2°50.898 356.7 11.9 353 21.5
2008-07-22 07:53:28 51°24.579 2°50.894 356.6 11.8 352 21.6
2008-07-22 07:53:33 51°24.595 2°50.891 356.5 11.7 352 21.5
2008-07-22 07:53:37 51°24.608 2°50.889 356.6 11.6 351 21.3
2008-07-22 07:53:43 51°24.627 2°50.884 356.3 11.7 352 21.7
2008-07-22 07:53:48 51°24.643 2°50.88 355.5 11.7 351 21.9
2008-07-22 07:53:53 51°24.659 2°50.876 354.8 11.7 351 21.7
2008-07-22 07:53:57 51°24.672 2°50.872 354.9 11.7 351 21.7
2008-07-22 07:54:03 51°24.691 2°50.868 354.8 11.8 351 21.6
2008-07-22 07:54:08 51°24.707 2°50.863 354.9 12 352 21.7
2008-07-22 07:54:13 51°24.724 2°50.859 356.1 11.8 352 21.4
2008-07-22 07:54:17 51°24.737 2°50.856 356.3 11.9 352 21.4
2008-07-22 07:54:23 51°24.756 2°50.852 356.1 11.8 352 21.4
2008-07-22 07:54:28 51°24.772 2°50.848 356.3 11.8 352 21.3
2008-07-22 07:54:33 51°24.788 2°50.845 356.5 11.5 353 21.5
2008-07-22 07:54:37 51°24.801 2°50.842 356.6 11.5 352 21.3
2008-07-22 07:54:43 51°24.82 2°50.838 356.7 11.6 354 21.5
2008-07-22 07:54:48 51°24.836 2°50.835 357.1 11.7 352 21.5
2008-07-22 07:54:53 51°24.853 2°50.832 356.8 11.7 353 21.9
2008-07-22 07:54:57 51°24.867 2°50.829 356.3 11.8 352 21.9
2008-07-22 07:55:03 51°24.888 2°50.825 355.5 12 352 22
2008-07-22 07:55:08 51°24.902 2°50.819 355.2 12.3 352 22
2008-07-22 07:55:13 51°24.918 2°50.815 355.3 11.8 352 21.7
2008-07-22 07:55:17 51°24.931 2°50.812 355.5 11.8 351 21.6
2008-07-22 07:55:23 51°24.95 2°50.807 355.7 11.9 351 21.7
2008-07-22 07:55:28 51°24.966 2°50.804 355.7 11.8 352 21.7
2008-07-22 07:55:33 51°24.982 2°50.8 356.2 11.7 352 21.7
2008-07-22 07:55:37 51°24.995 2°50.796 355.7 11.5 351 21.6
2008-07-22 07:55:43 51°25.014 2°50.792 355.6 11.7 351 21.7
2008-07-22 07:55:48 51°25.031 2°50.788 355.3 11.8 351 21.7
2008-07-22 07:55:53 51°25.047 2°50.784 355.7 11.8 353 21.9
2008-07-22 07:55:57 51°25.06 2°50.781 356.5 11.8 352 21.9
2008-07-22 07:56:03 51°25.08 2°50.778 356.8 11.9 353 21.9
2008-07-22 07:56:08 51°25.095 2°50.773 357 12 352 21.9
2008-07-22 07:56:13 51°25.112 2°50.769 356.7 11.9 353 22.1
2008-07-22 07:56:18 51°25.128 2°50.766 357 11.9 352 21.8
2008-07-22 07:56:23 51°25.145 2°50.762 356.9 11.8 353 21.7
2008-07-22 07:56:28 51°25.161 2°50.759 357.3 11.9 352 21.8
2008-07-22 07:56:33 51°25.178 2°50.755 357.1 11.7 352 21.9
2008-07-22 07:56:38 51°25.194 2°50.752 357 11.8 353 21.8
2008-07-22 07:56:43 51°25.21 2°50.749 357 11.8 353 21.9
2008-07-22 07:56:48 51°25.227 2°50.746 356.7 11.9 352 22
2008-07-22 07:56:53 51°25.243 2°50.742 356.2 12 352 22.1
2008-07-22 07:56:58 51°25.259 2°50.738 356 11.9 352 22
2008-07-22 07:57:03 51°25.275 2°50.734 355.7 11.7 353 22
2008-07-22 07:57:08 51°25.292 2°50.73 355.5 11.9 352 22.2
2008-07-22 07:57:13 51°25.308 2°50.727 354.8 12 351 22.2
2008-07-22 07:57:18 51°25.324 2°50.723 355.3 11.9 353 22.2
2008-07-22 07:57:23 51°25.34 2°50.72 355.3 12 351 22.2
2008-07-22 07:57:28 51°25.356 2°50.716 354.9 11.7 352 22.1
2008-07-22 07:57:33 51°25.372 2°50.713 355.4 11.7 353 21.9
2008-07-22 07:57:38 51°25.389 2°50.71 355.3 11.8 353 22.1
2008-07-22 07:57:43 51°25.405 2°50.706 355.5 11.7 353 22
2008-07-22 07:57:48 51°25.421 2°50.703 355.9 11.8 354 22
2008-07-22 07:57:53 51°25.438 2°50.7 356 11.9 354 22
2008-07-22 07:57:58 51°25.454 2°50.697 356.3 12 354 22
2008-07-22 07:58:03 51°25.47 2°50.694 357 12 353 22.3
2008-07-22 07:58:08 51°25.487 2°50.691 356.6 11.8 354 22.3
2008-07-22 07:58:13 51°25.503 2°50.688 356.3 11.9 353 22.3
2008-07-22 07:58:18 51°25.519 2°50.685 356.5 11.9 354 22.1
2008-07-22 07:58:23 51°25.536 2°50.682 356.1 11.9 353 22.2
2008-07-22 07:58:28 51°25.552 2°50.679 355.9 11.8 352 22.3
2008-07-22 07:58:33 51°25.568 2°50.675 355.5 11.8 352 22.1
2008-07-22 07:58:38 51°25.584 2°50.672 355.4 11.9 353 22
2008-07-22 07:58:43 51°25.601 2°50.668 355 11.8 352 22
2008-07-22 07:58:48 51°25.617 2°50.665 355.9 11.8 353 22.3
2008-07-22 07:58:53 51°25.634 2°50.661 356.1 12.1 352 22.3
2008-07-22 07:58:58 51°25.65 2°50.658 356.6 11.4 353 22.4
2008-07-22 07:59:03 51°25.666 2°50.656 356.6 11.4 354 22.2
2008-07-22 07:59:08 51°25.682 2°50.652 356.3 11.8 353 22
2008-07-22 07:59:13 51°25.698 2°50.649 355.7 11.6 353 22
2008-07-22 07:59:18 51°25.715 2°50.645 355.7 11.8 352 22.3
2008-07-22 07:59:23 51°25.731 2°50.642 355.9 11.8 353 22.3
2008-07-22 07:59:28 51°25.747 2°50.638 355.4 11.7 352 22.1
2008-07-22 07:59:33 51°25.763 2°50.636 355.9 11.6 352 22.1
2008-07-22 07:59:38 51°25.779 2°50.632 355.7 11.6 353 22
2008-07-22 07:59:43 51°25.795 2°50.629 356.4 11.6 354 22.1
2008-07-22 07:59:48 51°25.811 2°50.625 357 11.9 352 22.1
2008-07-22 07:59:53 51°25.827 2°50.624 357.4 11.8 355 22.2
2008-07-22 07:59:58 51°25.843 2°50.62 356.7 11.7 353 22.2
2008-07-22 08:00:03 51°25.859 2°50.617 357 11.7 354 22.1
2008-07-22 08:00:08 51°25.875 2°50.614 357.4 11.7 352 22
2008-07-22 08:00:13 51°25.891 2°50.611 356.9 11.8 353 22
2008-07-22 08:00:18 51°25.907 2°50.608 356.7 11.6 354 22.3
2008-07-22 08:00:23 51°25.923 2°50.605 356.6 11.4 352 22.3
2008-07-22 08:00:28 51°25.939 2°50.602 356.8 11.2 353 22
2008-07-22 08:00:33 51°25.954 2°50.599 356.7 11.3 353 22
2008-07-22 08:00:38 51°25.97 2°50.596 356.6 11.4 353 22
2008-07-22 08:00:43 51°25.986 2°50.593 357 11.6 353 22.2
2008-07-22 08:00:48 51°26.002 2°50.589 357.1 11.8 352 22.4
2008-07-22 08:00:53 51°26.018 2°50.586 356.7 11.8 352 22.4
2008-07-22 08:00:58 51°26.034 2°50.582 356.3 11.9 352 22.2
2008-07-22 08:01:03 51°26.05 2°50.579 356 11.7 351 22.4
2008-07-22 08:01:08 51°26.066 2°50.574 355.5 11.7 351 22.4
2008-07-22 08:01:13 51°26.082 2°50.57 355.9 11.7 351 22.3
2008-07-22 08:01:17 51°26.095 2°50.567 356.3 11.7 351 22.4
2008-07-22 08:01:23 51°26.114 2°50.562 356.3 11.6 352 22.3
2008-07-22 08:01:28 51°26.13 2°50.558 356.3 11.8 350 22.3
2008-07-22 08:01:33 51°26.146 2°50.555 355.9 11.7 351 22.4
2008-07-22 08:01:38 51°26.162 2°50.55 355.7 11.8 351 22.4
2008-07-22 08:01:43 51°26.178 2°50.547 356.3 11.9 351 22.5
2008-07-22 08:01:48 51°26.194 2°50.543 356.9 11.8 352 22.6
2008-07-22 08:01:53 51°26.21 2°50.539 356.8 11.8 351 22.1
2008-07-22 08:01:57 51°26.223 2°50.535 356.7 11.7 351 22.3
2008-07-22 08:02:03 51°26.243 2°50.53 356.3 11.7 351 22
2008-07-22 08:02:08 51°26.259 2°50.525 355.8 11.6 350 22
2008-07-22 08:02:13 51°26.276 2°50.52 355.5 11.6 350 21.8
2008-07-22 08:02:18 51°26.292 2°50.516 355.8 11.8 350 22.1
2008-07-22 08:02:23 51°26.309 2°50.511 355.5 11.8 351 22.2
2008-07-22 08:02:28 51°26.324 2°50.507 355.5 11.8 351 22.2
2008-07-22 08:02:33 51°26.34 2°50.503 356.1 12 351 22.3
2008-07-22 08:02:38 51°26.356 2°50.499 356.3 12 350 22.3
2008-07-22 08:02:43 51°26.373 2°50.494 355.5 12 350 22.2
2008-07-22 08:02:48 51°26.389 2°50.49 355.5 12.1 351 22.3
2008-07-22 08:02:53 51°26.406 2°50.486 355.7 12 351 22.5
2008-07-22 08:02:58 51°26.422 2°50.481 355.6 12.1 349 22.3
2008-07-22 08:03:03 51°26.438 2°50.478 355.7 11.9 352 22.4
2008-07-22 08:03:08 51°26.455 2°50.474 356.3 11.9 352 22.2
2008-07-22 08:03:13 51°26.471 2°50.471 357 11.9 352 22
2008-07-22 08:03:18 51°26.487 2°50.467 357.1 11.9 352 21.9
2008-07-22 08:03:23 51°26.503 2°50.464 357.1 11.9 353 22
2008-07-22 08:03:28 51°26.52 2°50.46 357 11.9 352 21.8
2008-07-22 08:03:33 51°26.536 2°50.457 356.8 11.8 352 22.2
2008-07-22 08:03:38 51°26.553 2°50.453 356.3 11.9 351 22.1
2008-07-22 08:03:43 51°26.568 2°50.449 356.1 11.8 352 22.2
2008-07-22 08:03:48 51°26.585 2°50.444 355.6 11.8 350 22.2
2008-07-22 08:03:53 51°26.601 2°50.441 355.5 11.6 352 22.2
2008-07-22 08:03:58 51°26.617 2°50.437 355.9 11.6 352 21.2
2008-07-22 08:04:03 51°26.633 2°50.433 356.4 11.6 351 19.1
2008-07-22 08:04:08 51°26.649 2°50.429 355.9 11.6 352 20.4
2008-07-22 08:04:13 51°26.665 2°50.425 356.1 11.6 352 22.1
2008-07-22 08:04:18 51°26.68 2°50.422 357.1 11.4 353 21.8
2008-07-22 08:04:23 51°26.696 2°50.418 357.4 11.6 351 20.9
2008-07-22 08:04:28 51°26.713 2°50.415 357.5 11.6 354 20.1
2008-07-22 08:04:33 51°26.729 2°50.41 356.6 11.5 350 20.6
2008-07-22 08:04:38 51°26.745 2°50.409 357 11.7 354 20.6
2008-07-22 08:04:43 51°26.76 2°50.404 357 11.7 350 21.5
2008-07-22 08:04:48 51°26.777 2°50.401 357.2 11.8 354 22.1
2008-07-22 08:04:53 51°26.793 2°50.397 356.9 11.6 353 21.4
2008-07-22 08:04:58 51°26.809 2°50.394 357.3 11.6 353 20.7
2008-07-22 08:05:03 51°26.825 2°50.39 356.5 11.6 354 19.7
2008-07-22 08:05:08 51°26.841 2°50.387 357.4 11.8 351 18.5
2008-07-22 08:05:13 51°26.857 2°50.383 357.1 11.9 351 20.1
2008-07-22 08:05:18 51°26.873 2°50.38 356.5 11.9 353 20.4
2008-07-22 08:05:23 51°26.889 2°50.375 356.3 11.6 351 18.9
2008-07-22 08:05:28 51°26.905 2°50.372 356.2 11.8 351 17.5
2008-07-22 08:05:33 51°26.921 2°50.367 355.7 11.8 351 18.6
2008-07-22 08:05:38 51°26.937 2°50.364 356 11.8 353 18.6
2008-07-22 08:05:43 51°26.953 2°50.359 356 11.7 351 17.8
2008-07-22 08:05:48 51°26.97 2°50.357 356.3 11.9 353 17.7
2008-07-22 08:05:53 51°26.986 2°50.352 356.6 11.9 351 18.5
2008-07-22 08:05:58 51°27.002 2°50.349 356.6 11.8 354 18.3
2008-07-22 08:06:03 51°27.018 2°50.345 356.9 11.7 353 17.4
2008-07-22 08:06:08 51°27.034 2°50.342 357.1 11.7 351 18.3
2008-07-22 08:06:13 51°27.051 2°50.338 356.8 11.8 354 18.5
2008-07-22 08:06:18 51°27.067 2°50.334 357 11.9 350 17.5
2008-07-22 08:06:23 51°27.083 2°50.33 356.6 11.7 353 16.5
2008-07-22 08:06:28 51°27.099 2°50.326 357 11.8 351 16.4
2008-07-22 08:06:33 51°27.115 2°50.322 356 12 350 16
2008-07-22 08:06:38 51°27.131 2°50.318 355.7 11.6 351 15.4
2008-07-22 08:06:43 51°27.147 2°50.313 355.8 11.6 350 15.8
2008-07-22 08:06:48 51°27.162 2°50.31 356.3 11.6 352 16.8
2008-07-22 08:06:53 51°27.178 2°50.304 356.1 11.4 350 17.6
2008-07-22 08:06:58 51°27.194 2°50.302 356.3 11.5 352 17.9
2008-07-22 08:07:03 51°27.21 2°50.298 356.8 11.5 351 19
2008-07-22 08:07:08 51°27.225 2°50.294 356.4 11.6 350 20
2008-07-22 08:07:13 51°27.242 2°50.29 356.3 11.6 351 20.6
2008-07-22 08:07:18 51°27.258 2°50.286 355.9 11.6 352 20.8
2008-07-22 08:07:23 51°27.274 2°50.283 357 11.6 351 20.9
2008-07-22 08:07:28 51°27.29 2°50.279 356.6 11.6 353 21.2
2008-07-22 08:07:33 51°27.306 2°50.275 357 11.8 351 21.5
2008-07-22 08:07:38 51°27.322 2°50.272 357 11.9 353 21.8
2008-07-22 08:07:43 51°27.338 2°50.268 356.9 11.8 351 22.1
2008-07-22 08:07:48 51°27.354 2°50.264 356.6 11.8 351 22.1
2008-07-22 08:07:53 51°27.371 2°50.26 356 11.8 351 22.6
2008-07-22 08:07:58 51°27.387 2°50.256 356.4 11.8 352 22.6
2008-07-22 08:08:03 51°27.403 2°50.253 357 11.8 353 22.6
2008-07-22 08:08:08 51°27.419 2°50.249 356.7 11.8 352 22.4
2008-07-22 08:08:13 51°27.436 2°50.246 356.8 11.7 353 22.7
2008-07-22 08:08:18 51°27.452 2°50.242 357 11.7 351 22.8
2008-07-22 08:08:23 51°27.468 2°50.239 356.6 11.7 353 23.1
2008-07-22 08:08:28 51°27.484 2°50.235 357 11.8 352 23
2008-07-22 08:08:33 51°27.5 2°50.232 356.7 11.8 352 22.8
2008-07-22 08:08:38 51°27.516 2°50.228 356.9 11.7 351 22.8
2008-07-22 08:08:43 51°27.533 2°50.224 356.7 11.9 352 23.2
2008-07-22 08:08:48 51°27.549 2°50.221 356.3 11.8 352 23.5
2008-07-22 08:08:53 51°27.565 2°50.217 356.4 11.8 354 23.4
2008-07-22 08:08:58 51°27.581 2°50.214 357.1 11.8 352 23.8
2008-07-22 08:09:03 51°27.598 2°50.211 356.8 11.8 353 24.3
2008-07-22 08:09:08 51°27.614 2°50.207 356.1 11.6 352 23.9
2008-07-22 08:09:13 51°27.63 2°50.203 355.9 11.6 352 24
2008-07-22 08:09:18 51°27.646 2°50.199 355.5 11.8 351 24.2
2008-07-22 08:09:23 51°27.662 2°50.195 355.1 11.8 351 24.4
2008-07-22 08:09:28 51°27.678 2°50.191 354.6 11.7 351 24.5